Location: Cheadle
(51.0146°N, 113.5417°W)
Time: 03:15:04
(UTC+00:00)

Oscar 11 - Pass Details

Date: 14 December 2023
Orbit: 603 x 617 km, 97.7° (Epoch: 21 February)

Event Time Altitude Azimuth Distance (km) Brightness Sun altitude
Rises 00:10:21 0° 220° (SW) 2,858 12.0 -6.5°
Reaches altitude 10° 00:13:59 10° 253° (WSW) 1,966 11.3 -7.0°
Maximum altitude 00:15:31 12° 274° (W) 1,860 10.5 -7.2°
Drops below altitude 10° 00:17:03 10° 295° (WNW) 1,975 10.2 -7.4°
Sets 00:20:45 0° 329° (NNW) 2,892 10.6 -7.9°
